Powrót do katalogu

FALCON 9 R/B

AktywnyGTO
NORAD 41381·ROCKET BODY·🇺🇸 United States

Wystrzelony Mar 4, 2016 z Cape Canaveral Space Force Station

Loading…

TLE

Starzejące sięSource: Space-Track

Epoka: Sep 14, 2026, 08:18 UTC

1 41381U 16013B   26257.34611555  .00000368  00000-0  91311-3 0  9995
2 41381  27.2903 222.4049 7414803 359.0758 359.8837  2.05378074 77147

Śledź FALCON 9 R/B w czasie rzeczywistym z AllMySat

Download on the App Store